Погода в Сувейке

Оман     23°51′06″N   57°26′23″E
темп.,
°C
ветер,
м/с
пор.,
м/с
влажн.,
%
обл.,
%
осадки,
мм/ч
давл.,
гПа
погр.,
м
24 июля, сб
сб2401:00+37ссз114434 0.0 99412
04:00+35в33466 0.0 99532
07:00+36вюв33364 0.0 997128
10:00+40с2229100 0.0 997815
13:00+39ссв5438100 0.0 997671
16:00+38св654349 0.0 996473
19:00+36в44485 0.0 996320
22:00+35ссв3353100 0.0 999132
25 июля, вс
вс2501:00+33юз1261100 0.0 998148
04:00+34юв115285 0.0 99713
07:00+35всв214998 0.0 999124
10:00+38всв32435 0.0 999718
13:00+39ссв64405 0.0 998837
16:00+39всв54405 0.0 996490
19:00+36всв43465 0.0 996212
22:00+38з68322 0.0 997242
26 июля, пн
пн2601:00+37зюз113391 0.0 99512
04:00+36с233767 0.0 99619
07:00+36ююз2238100 0.0 998108
10:00+40ссз233083 0.0 997696
13:00+41с553121 0.0 996759
16:00+41ссв5528100 0.0 995655
19:00+40вюв222798 0.0 995186
22:00+40юз3324100 0.0 99531
27 июля, вт
вт2701:00+37ссв223785 0.0 99325
04:00+36вюв113899 0.0 99311
07:00+39зюз3529100 0.0 994157
10:00+41ссз653135 0.0 995782
13:00+42с562911 0.0 9931128
16:00+42ссв442476 0.0 992594
19:00+43юз1121100 0.0 99212
22:00+42зюз122156 0.0 99216
28 июля, ср
ср2801:00+37ссз2238100 0.0 99239
04:00+36в224199 0.0 99117
07:00+39юз1331100 0.0 993238
10:00+41с543364 0.0 994721
13:00+41ссв543163 0.0 993606
16:00+42ю1227100 0.1 992823
19:00+40ю10132494 0.3 992401
22:00+41ююв332298 0.3 99329